sat.trackr.live / text

‹ back to catalog

KL-BETA B

NORAD 49060 · 2021-070B

PAYLOAD ACTIVE UNKNOWN

§ Identity

Operator
Country
GER
Launch date
2021-08-04
Launch site
TAISC
Launch vehicle
Mass (kg)
RCS (m²)

External: N2YO · Heavens-Above · Gunter

§ Orbital elements

Epoch: 2026-05-25T04:47:47.842656Z

Period
103.25 min
Inclination
89.0055°
Eccentricity
0.0005016
Mean motion
13.94716450 rev/d
Perigee alt
908.5 km
Apogee alt
915.8 km
Semi-major
7,290.3 km
B*
7.1623e-5
RAAN
220.9655°
Arg perigee
164.3002°
Mean anomaly
195.8331°
Rev number
24,476

§ Raw data

KL-BETA B1 49060U 21070B   26145.19985929  .00000109  00000+0  71623-4 0  99912 49060  89.0055 220.9655 0005016 164.3002 195.8331 13.94716450244768

JSON: /api/v1/satellites/49060 · /tle

For live sub-satellite position, see the globe view (requires WebGL).

§ Visibility from observer

Set your observer location to see the next 7 days of passes ≥ 10°. The values pass through the URL so the page stays shareable.

No JS? Fill the form by hand. The geolocation button needs JavaScript.